User: anonymous
Location: Albany
(35.0000°S, 118.0000°E)
Time: 05:49:46
(UTC-04:00)
Language:

JAS-1B - Orbit

View from above orbital plane
View from above orbital plane
View from above satellite
View from above satellite

Ground track
Ground track

The orbit data is extracted from the following two-line orbital elements,

1 20480U 90013C   14261.82720789 -.00000026  00000-0  64306-5 0  8378
2 20480 099.0560 207.3961 0540920 141.6706 278.5861 12.83395780153145
Epoch (UTC): 18 September 2014 19:51:10
Eccentricity: 0.0540920
inclination: 99.0560°
perigee height: 911 km
apogee height: 1744 km
right ascension of ascending node: 207.3961°
argument of perigee: 141.6706°
revolutions per day: 12.83395780
mean anomaly at epoch: 278.5861°
orbit number at epoch: 15314

The dashed part of the orbit path shows where the satellite is in the earth's shadow,  

DLR